Location: Church Tower
(37.7144°N, 119.6316°W)
Time: 19:33:14
(UTC+00:00)

In-Cosmos 22 Rocket - Pass Details

Date: 15 November 2025
Orbit: 789 x 886 km, 81.2° (Epoch: 08 December)

Event Time Altitude Azimuth Distance (km) Brightness Sun altitude
Rises 12:48:13 0° 183° (S) 3,468 7.4 -21.9°
Reaches altitude 10° 12:50:39 10° 182° (S) 2,537 6.7 -21.4°
Maximum altitude 12:56:27 78° 97° (E) 909 4.4 -20.3°
Drops below altitude 10° 13:02:15 10° 12° (NNE) 2,545 6.7 -19.2°
Sets 13:04:42 0° 11° (N) 3,479 7.4 -18.7°
